Regional Weather Roundup
Issued by NWS

Home | Current Version | Previous Version | Graphics & Text | Print | Product List | Glossary On
Versions: 1 2 3 4 5 6 7 8 9 10 11 12 13 14 15 16 17 18 19 20 21 22 23 24 25 26 27 28 29 30 31 32 33 34 35 36 37 38 39 40 41 42 43 44 45 46 47 48 49 50
271
ASUS43 KLMK 221602
RWRKY
KENTUCKY REGIONAL WEATHER ROUNDUP
NATIONAL WEATHER SERVICE LOUISVILLE KY
1100 AM EST THU FEB 22 2018

NOTE "FAIR" INDICATES FEW OR NO CLOUDS BELOW 12,000 FEET
WITH NO SIGNIFICANT WEATHER AND/OR OBSTRUCTIONS TO VISIBILITY.

KYZ001>023-026-027-061>063-070>075-221700-
WESTERN AND SOUTH CENTRAL KENTUCKY

CITY           SKY/WX    TMP DP  RH WIND       PRES   REMARKS
PADUCAH        CLOUDY    45  43  93 NE6       30.36S FOG
HENDERSON      CLOUDY    45  44  97 NE8       30.38R FOG
OWENSBORO      CLOUDY    47  45  93 NE6       30.37S
HOPKINSVILLE   CLOUDY    49  49 100 SE3       30.35R
BOWLING GREEN  CLOUDY    53  52  96 CALM      30.36S
GLASGOW        NOT AVBL
$$

KYZ024-025-028>034-038-045-046-053-221700-
NORTH CENTRAL KENTUCKY

CITY           SKY/WX    TMP DP  RH WIND       PRES   REMARKS
LOUISVILLE/SDF CLOUDY    46  42  86 NE9       30.40F
LOUISVILLE/LOU CLOUDY    45  44  97 NE13      30.40F
FORT KNOX      CLOUDY    44  44  99 NE7       30.39R
$$

KYZ035>037-039>044-047>052-055>060-089>105-221700-
NORTHEAST KENTUCKY

CITY           SKY/WX    TMP DP  RH WIND       PRES   REMARKS
LEXINGTON      LGT RAIN  46  43  89 N9        30.40R FOG
COVINGTON      CLOUDY    43  41  93 NE14      30.44R FOG
FRANKFORT      CLOUDY    44  40  85 N7        30.40R FOG
$$

KYZ054-064>069-076>088-106>120-221700-
SOUTHEAST KENTUCKY

CITY           SKY/WX    TMP DP  RH WIND       PRES   REMARKS
JACKSON        CLOUDY    56  54  93 VRB3      30.37R
LONDON         LGT RAIN  68  61  78 SW8       30.35R
SOMERSET       CLOUDY    57  57 100 N5        30.37R
MIDDLESBORO    PTSUNNY   73  61  67 S12G17    30.38S
MONTICELLO     NOT AVBL
$$





USA.gov is the U.S. government's official web portal to all federal, state and local government web resources and services.